Location: Freiburg+im+Breisgau
(48.0359°N, 7.8195°E)
Time: 13:19:23
(UTC+01:00)

N. Korean satellite - Visible Passes

Search period start: 19 February 2018 00:00
Search period end: 01 March 2018 00:00
Orbit: 459 x 514 km, 97.2° (Epoch: 18 February)

Date Brightness Start Highest point End Pass type
(mag) Time Alt. Az. Time Alt. Az. Time Alt. Az.
19 Feb 10.0 19:21:11 10° SW 19:23:17 15° W 19:25:24 10° NW visible
20 Feb 8.7 06:43:07 10° NNE 06:46:27 33° E 06:49:49 10° SSE visible
20 Feb 8.9 18:56:22 10° SSW 18:59:22 27° W 19:02:25 10° NW visible
21 Feb 9.9 06:19:56 10° NE 06:22:34 19° E 06:25:14 10° SE visible
21 Feb 7.4 18:32:09 10° S 18:35:31 54° W 18:38:58 10° NNW visible
22 Feb 10.7 05:58:02 10° E 05:58:36 10° E 05:59:11 10° E visible
23 Feb 10.0 19:19:35 10° SW 19:21:46 16° W 19:23:59 10° NW visible
24 Feb 8.8 06:41:38 10° NNE 06:44:58 32° E 06:48:21 10° SSE visible
24 Feb 8.9 18:54:47 10° SSW 18:57:50 28° W 19:00:57 10° NW visible
25 Feb 10.0 06:18:27 10° NE 06:21:05 18° E 06:23:43 10° SE visible
26 Feb 10.8 05:56:43 10° E 05:57:06 10° E 05:57:28 10° E visible
27 Feb 9.9 19:17:55 10° SW 19:20:12 16° W 19:22:32 10° NW visible
28 Feb 8.9 06:40:05 10° NNE 06:43:27 31° E 06:46:49 10° SSE visible
28 Feb 8.9 18:53:09 10° SSW 18:56:16 30° W 18:59:27 10° NNW visible
